Location: *
(33.3200°N, 8.3381°W)
Time: 00:00:10
(UTC+00:00)

CZ-2C R/B - Pass Details

Date: 09 April 2020
Orbit: 785 x 870 km, 98.3° (Epoch: 06 June)

Event Time Altitude Azimuth Distance (km) Brightness Sun altitude
Rises 19:22:25 0° 40° (NE) 3,284 5.5 -5.4°
Reaches altitude 10° 19:26:34 10° 73° (ENE) 2,359 4.5 -6.3°
Maximum altitude 19:28:16 12° 92° (E) 2,258 4.3 -6.6°
Drops below altitude 10° 19:29:57 10° 111° (ESE) 2,367 4.4 -7.0°
Enters shadow 19:31:59 - 130° (SE) 2,737 4.8 -7.4°
